Location: Maiden
(35.5760°N, 81.2120°W)
Time: 03:04:42
(UTC-04:00)

Vanguard 2 - Pass Details

Date: 09 August 2020
Orbit: 553 x 2937 km, 32.9° (Epoch: 20 September)

Event Time Altitude Azimuth Distance (km) Brightness Sun altitude
Rises 19:33:07 0° 214° (SW) 6,617 12.6 8.4°
Reaches altitude 10° 19:37:56 10° 207° (SSW) 5,717 12.2 7.4°
Maximum altitude 19:53:25 38° 148° (SSE) 3,764 10.7 4.4°
Drops below altitude 10° 20:06:28 10° 87° (E) 4,883 11.0 1.8°
Sets 20:10:09 0° 80° (E) 5,599 11.4 1.1°
